Regional Weather Roundup
Issued by NWS Charleston, SC

Current Version | Previous Version | Text Only | Print | Product List | Glossary Off
Versions: 1 2 3 4 5 6 7 8 9 10 11 12 13 14 15 16 17 18 19 20 21 22 23 24 25 26 27 28 29 30 31 32 33 34 35 36 37 38 39 40 41 42 43 44 45 46 47 48 49 50

000
ASUS42 KCHS 220310
RWRCHS

REGIONAL WEATHER ROUNDUP
NATIONAL WEATHER SERVICE CHARLESTON SC
1100 PM EDT SUN SEP 21 2014

NOTE: "FAIR" INDICATES FEW OR NO CLOUDS BELOW 12,000 FEET WITH NO
SIGNIFICANT WEATHER AND/OR OBSTRUCTIONS TO VISIBILITY.

NOT ALL STATIONS ARE QUALITY CONTROLLED BY THE NATIONAL
WEATHER SERVICE. USE DATA WITH CAUTION...ESPECIALLY
DEWPOINT OBSERVATIONS.

SCZ027-030-031-034>040-042>050-220400-
...SOUTH CAROLINA...

CITY           SKY/WX    TMP DP  RH WIND       PRES   REMARKS
N CHARLESTON   CLEAR     74  67  78 SW6       29.97R
WATERFRONT PRK NOT AVBL
FORT JOHNSON   NOT AVBL
MOUNT PLEASANT FAIR      77  72  83 SW6       29.97R
JOHNS ISLAND   CLEAR     79  75  89 SW5       29.97R
PINOPOLIS        N/A     79  66  65 SW10      29.88R
MONCKS CORNER    N/A     75  68  78 SW6       29.96R
SUMMERVILLE    NOT AVBL
BEAUFORT MCAS  CLEAR     74  68  81 E6        29.98R
BEAUFORT ARPT  FAIR      77  70  78 SW7       29.98R
HILTON HEAD IS CLEAR     75  70  83 SW5       29.99S
GEORGETOWN     NOT AVBL
WALTERBORO     CLEAR     72  68  88 SW5       29.98R
ORANGEBURG     CLEAR     72  64  76 SW7       29.96R
BARNWELL       FAIR      73  66  78 SW6       29.97R
AIKEN          FAIR      73  64  73 S7        29.99S
MANNING        FAIR      77  68  73 SW6       29.94S
KINGSTREE      NOT AVBL
COLUMBIA       PTCLDY    76  63  64 SW6       29.92R
SUMTER         CLEAR     74  65  72 SW8       29.91S
FLORENCE       CLEAR     75  64  68 SW8       29.91S
MYRTLE BEACH   CLEAR     79  64  61 SW8       29.94R
N MYRTLE BEACH CLEAR     78  67  68 SW10      29.92S

$$

GAZ063-065-086>088-099>101-113>116-118-119-134-136>141-150-220400-
...GEORGIA...

CITY           SKY/WX    TMP DP  RH WIND       PRES   REMARKS
SAVANNAH ARPT  CLEAR     75  65  70 S7        29.99S
HUNTER AAF     CLEAR     75  68  77 SW8       29.97S
FORT STEWART   CLEAR     71  63  75 VRB2      29.98F
STATESBORO     NOT AVBL
SYLVANIA       CLEAR     76  69  79 CALM      29.99S
CLAXTON        FAIR      70  70 100 CALM      29.99S
THOMSON        CLEAR     77  69  75 MISG      30.00S
AUGUSTA-BUSH   CLEAR     73  63  70 SW7       29.95R
AUGUSTA-DANIEL CLEAR     78  62  57 SW5       29.96S
SWAINSBORO     FAIR      77  64  65 SW3       29.99S
VIDALIA        CLEAR     72  63  73 CALM      30.00S
ALMA           CLEAR     67  62  84 SW5       30.01S
WAYCROSS       NOT AVBL
JESUP          FAIR      70  64  83 SW3       30.00F
BRUNSWICK      CLEAR     72  66  83 SW5       30.02S
SAINT SIMONS   CLEAR     76  66  71 SW9       30.01S

$$

SCZ027-028-034-036>038-045-046-048>050-GAZ119-141-220400-
...LAKE AND SUPPLEMENTAL COASTAL OBSERVATIONS...

STATION/POSITION TIME  TEMP    WIND        PRES    WAVE   SWELL
                       AIR SEA DIR/SP/G            HT/PER HT/PER/DIR
                 (UTC) (F)     (DEG/KT/KT) (MB)    (FT/S) (FT/S/D)
UPR LAKE MARION  NOT AVBL
WINYAH BAY       0200   78     220/  8     1014.0R
LAKE MURRAY      0200   80     240/ 12/ 15 1012.5R
ACE BASIN NERRS  0200   74        CALM     1015.0R
FORT PULASKI     0300   77     210/  6/  9 1015.4F
SAPELO ISLAND    0200   76     200/  7     1016.0S

$$

ANZ835-935-AMZ111-154-330-350-352-354-374-450-454-472-220400-
...C-MAN AND BUOY OBSERVATIONS...

STATION/POSITION TIME  TEMP    WIND        PRES    WAVE   SWELL
                       AIR SEA DIR/SP/G            HT/PER HT/PER/DIR
                 (UTC) (F)     (DEG/KT/KT) (MB)    (FT/S) (FT/S/D)
FOLLY BEACH CMAN 0200   80     220/ 15/ 17 1014.9R
BUOY 41004       0300   81 82  220/ 16/ 17 1014.2R   3/ 7   2/ 7
BUOY 41008       0300   82 83  210/ 16/ 17 1015.7F   2/10   2/ 80/10
5E ST. MARYS GA  0300      83                N/A     2/11   2/ 90/11
FRYING PAN BUOY  NOT AVBL
BUOY 41025       0300   80     240/ 21/ 25 1010.8R   6/ 9   5/130/ 9
CAPE LOOKOUT NC  0200   79     230/ 11/ 15 1012.0R
BUOY 41002       0248   80 81  250/ 12/ 16 1015.5R   7/ 7   7/180/ 7
BUOY 41010       0300   82 85  200/  4/  6 1017.0F   5/ 8   5/ 30/ 8
BUOY 41012       NOT AVBL
ST AUGUSTINE FL  0300   80     160/  8/  9 1017.5R
CAPERS NEARSHORE 0200   80     230/ 16/ 17   N/A
FRIPP NEARSHORE  NOT AVBL


$$


USA.gov is the U.S. government's official web portal to all federal, state and local government web resources and services.